Regional Weather Roundup
Issued by NWS

Home | Current Version | Previous Version | Text Only | Print | Product List | Glossary Off
Versions: 1 2 3 4 5 6 7 8 9 10 11 12 13 14 15 16 17 18 19 20 21 22 23 24 25 26 27 28 29 30 31 32 33 34 35 36 37 38 39 40 41 42 43 44 45 46 47 48 49 50

957
ASUS43 KFSD 261002
RWRSD

WEATHER ROUNDUP FOR SOUTH DAKOTA
NATIONAL WEATHER SERVICE SIOUX FALLS SD
500 AM CDT THU MAY 26 2016

NOTE: "FAIR" INDICATES FEW OR NO CLOUDS BELOW 12,000 FEET WITH NO
SIGNIFICANT WEATHER AND/OR OBSTRUCTIONS TO VISIBILITY.


SDZ001>005-009-010-012>017-261100-
NORTHWEST AND NORTH CENTRAL SOUTH DAKOTA

CITY           SKY/WX    TMP DP  RH WIND       PRES   REMARKS
BUFFALO          N/A     42  38  85 CALM      29.80S
FAITH            N/A     46  41  82 W5        29.85F
MOBRIDGE       CLEAR     49  44  83 NW6       29.81F
$$

SDZ012>016-024>037-041>051-057-063-072>074-261100-
SOUTHWEST AND SOUTH CENTRAL SOUTH DAKOTA

CITY           SKY/WX    TMP DP  RH WIND       PRES   REMARKS
RAPID CTY ARPT CLEAR     46  42  86 W8        29.88S
PIERRE         CLEAR     49  46  90 S3        29.82F
CUSTER         CLEAR     37  34  89 NW5       29.96R
ELLSWORTH AFB  CLEAR     46  44  94 SW7       29.87F
PHILIP         CLEAR     45  44  97 W6        29.85F
PINE RIDGE     CLEAR     39  36  89 CALM      29.91R
WINNER         FAIR      53  49  86 SW3       29.86S
$$

SDZ004>011-016>023-039-040-261100-
NORTHEAST SOUTH DAKOTA

CITY           SKY/WX    TMP DP  RH WIND       PRES   REMARKS
ABERDEEN       CLEAR     51  48  89 W9        29.81R
WATERTOWN      CLEAR     56  51  84 W10       29.81R
BROOKINGS      CLEAR     56  52  86 CALM      29.82R
SISSETON         N/A     58  52  80 W17       29.75S
$$

SDZ017-020-022-023-036>040-048>070-261100-
SOUTHEAST SOUTH DAKOTA

CITY           SKY/WX    TMP DP  RH WIND       PRES   REMARKS
SIOUX FALLS    PTCLDY    57  52  83 NW3       29.84R
HURON          CLEAR     50  48  93 W5        29.82S
MITCHELL       CLEAR     56  51  84 W3        29.85R
YANKTON        CLEAR     59  52  77 SW3       29.85S
$$

ABBREVIATIONS USED IN REMARKS
   TC - TEMPERATURE IN CELSIUS
  WCI - WIND CHILL INDEX
   HX - HEAT INDEX
  VSB - VISIBILITY





USA.gov is the U.S. government's official web portal to all federal, state and local government web resources and services.